Weather in Svobodny

Russia / Republic of Mordovia     53°52′45″N   86°33′34″E
temp.,
°C
wind,
m/s
gust,
m/s
humid.,
%
clouds,
%
prec.,
mm/h
press.,
hPa
HPBL,
m
1 march, mon
mon100:00−10sse3896100 0.4 1020289
03:00−8sse4996100 1.3 1017373
06:00−6s4995100 1.5 1015528
09:00−4ssw61191100 2.4 10111035
12:00−3sw71391100 0.6 10101023
15:00−3sw71592100 1.7 1009903
18:00−3sw8169198 0.5 1008904
21:00−3sw8169299 1.1 1008878
2 march, tue
tue200:00−3sw81590100 0.3 1008864
03:00−3wsw61293100 0.9 1010667
06:00−4wsw6119079 0.3 1012767
09:00−4wsw7108987 0.6 1014968
12:00−5wsw5987100 0.2 1014816
15:00−8wsw3493100 0.3 101598
18:00−10w129597 0.0 101521
21:00−12sw229695 0.1 101423
3 march, wed
wed300:00−11wsw1295100 0.1 101421
03:00−10w1197100 0.5 101643
06:00−9sw2393100 0.5 1016266
09:00−7sw3591100 0.7 1018515
12:00−7wsw4788100 0.1 1018655
15:00−10wsw4991100 0.2 1021435
18:00−11sw3893100 0.1 1024396
21:00−13ssw4893100 0.3 1026305
4 march, thu
thu400:00−16s389699 0.0 1026184
03:00−14s499598 0.1 1027264
06:00−10s5109399 0.1 1025506
09:00−5ssw61281100 0.3 10231012
12:00−4sw61174100 0.0 1021908
15:00−6ssw51282100 0.0 1021447
18:00−6ssw51481100 0.0 1020521
21:00−6ssw51376100 0.0 1019362
5 march, fri
fri500:00−7ssw51183100 0.0 1018232
03:00−8s41082100 0.0 1015158
06:00−5sse41079100 0.0 1012257
09:00−1ssw51081100 0.0 1010586
12:00−2sw91691100 0.7 10131151
15:00−2wsw7149182 1.1 1017879
18:00−5wsw7148851 0.3 1022896
21:00−8sw5148970 0.4 1025701